• Join FlightAware (Why Join?)
  • Login
  • US Flag GB Flag 
20:40 EDT


 

Airport Tracker/Info


-or-


 

Live Flight TrackerFlight Track Log ✈ AWE1693 ✈ 11-May-2013 ✈ KCLT - TKPK / SKB

Flight Track Log - Related Links

Times and Time Zones

All times are in EDT time to prevent confusion due to time zone crossing. See the AWE1693 flight status page for this flight to view local times or setup timezone preferences in your user account.

Time Position Orientation Groundspeed Altitude Reporting Facility
EDT Latitude Longitude Course Direction KTS MPH feet Rate Location/Type
12:08 35.1928 -80.9356 175° South 159 183 1,600  Level Atlanta Center
12:09 35.1428 -80.9300 175° South 197 227 3,000 1,620 Climbing Atlanta Center
12:10 35.1092 -80.9261 175° South 246 283 4,000 2,100 Climbing Atlanta Center
12:10 35.0714 -80.9147 166° South 257 296 5,400 1,860 Climbing Atlanta Center
12:11 34.9478 -80.6034 175° South  Level Estimated
12:11 35.0464 -80.9131 177° South 256 295 5,900  Level Atlanta Center
12:11 34.9981 -80.9047 172° South 271 312 7,700 2,340 Climbing Atlanta Center
12:12 34.8590 -80.4887 180° South  Level Estimated
12:13 34.7701 -80.3742 165° South  Level Estimated
12:13 34.8917 -80.9039 180° South 305 351 10,600  Level Atlanta Center
12:14 34.6810 -80.2600 175° South  Level Estimated
12:15 34.6489 -80.8989 179° South 350 403 15,300  Level Jacksonville Center
12:16 34.5486 -80.8886 175° South 361 415 17,900 1,980 Climbing Jacksonville Center
12:17 34.4461 -80.8758 174° South 366 421 19,300 1,440 Climbing Jacksonville Center
12:18 34.3394 -80.8606 173° South 372 428 20,800 1,440 Climbing Jacksonville Center
12:19 34.2475 -80.8428 171° South 385 443 22,200 1,380 Climbing Jacksonville Center
12:20 34.1325 -80.8328 176° South 391 450 23,600 1,320 Climbing Jacksonville Center
12:21 34.0175 -80.8181 174° South 413 475 24,900 1,200 Climbing Jacksonville Center
12:22 33.9022 -80.7883 168° South 418 481 26,000 900 Climbing Jacksonville Center
12:23 33.7944 -80.7083 148° Southeast 428 493 26,700 480 Climbing Jacksonville Center
12:24 33.6844 -80.6236 147° Southeast 450 518 27,000 120 Climbing Jacksonville Center
12:25 33.5703 -80.5394 148° Southeast 461 531 27,000  Level Jacksonville Center
12:26 33.4706 -80.4450 142° Southeast 471 542 27,000  Level Jacksonville Center
12:27 33.4050 -80.3050 119° Southeast 463 533 27,000  Level Jacksonville Center
12:28 33.3417 -80.1650 118° Southeast 470 541 27,000  Level Jacksonville Center
12:29 33.2714 -80.0108 119° Southeast 475 547 27,000  Level Jacksonville Center
12:30 33.2053 -79.8639 118° Southeast 481 554 27,000  Level Jacksonville Center
12:31 33.1392 -79.7247 120° Southeast 481 554 27,000  Level Jacksonville Center
12:32 33.0731 -79.5808 119° Southeast 487 560 27,000  Level Jacksonville Center
12:33 33.0108 -79.4419 118° Southeast 493 567 27,000 -60 Level Jacksonville Center
12:34 32.9422 -79.2986 120° Southeast 493 567 26,900  Descending Jacksonville Center
12:35 32.8775 -79.1578 119° Southeast 493 567 27,000  Climbing Jacksonville Center
12:36 32.8086 -79.0172 120° Southeast 493 567 27,000  Level Jacksonville Center
12:37 32.7414 -78.8744 119° Southeast 493 567 27,000  Level Jacksonville Center
12:38 32.6783 -78.7317 118° Southeast 493 567 27,000 -60 Level Jacksonville Center
12:39 32.6092 -78.5919 120° Southeast 493 567 26,900 60 Descending Jacksonville Center
12:40 32.5436 -78.4494 119° Southeast 493 567 27,200 900 Climbing Jacksonville Center
12:41 32.4781 -78.3100 119° Southeast 493 567 28,800 1,320 Climbing Jacksonville Center
12:42 32.4192 -78.1850 119° Southeast 493 567 29,900 840 Climbing Jacksonville Center
12:43 32.3514 -78.0458 120° Southeast 488 562 30,500 1,260 Climbing Jacksonville Center
12:44 32.2833 -77.9044 120° Southeast 488 562 32,500 1,200 Climbing Jacksonville Center
12:45 32.1994 -77.7914 131° Southeast 477 549 33,000 240 Climbing Jacksonville Center
12:46 32.0919 -77.7114 148° Southeast 454 522 33,000  Level Jacksonville Center
12:47 31.9844 -77.6342 149° Southeast 459 528 33,000  Level Jacksonville Center
12:48 31.8767 -77.5525 147° Southeast 459 528 33,000  Level Jacksonville Center
12:49 31.7706 -77.4658 145° Southeast 459 528 33,000  Level Jacksonville Center
12:50 31.6683 -77.3667 140° Southeast 464 534 33,000  Level Jacksonville Center
12:51 31.5622 -77.2853 147° Southeast 464 534 33,000 -60 Level Jacksonville Center
12:52 31.4622 -77.1914 141° Southeast 464 534 32,900 -60 Descending Jacksonville Center
12:53 31.3697 -77.0853 136° Southeast 464 534 32,900  Level Jacksonville Center
12:54 31.2850 -76.9714 131° Southeast 464 534 33,000  Climbing Jacksonville Center
12:56 31.3500 -77.0000 140° Southeast 462 532 33,000  Level New York Oceanic (ODAPS)
13:02 30.5561 -76.2386 141° Southeast 462 532 33,000  Level FlightAware Transoceanic
13:03 30.4565 -76.1443 141° Southeast 462 532 33,000  Level FlightAware Transoceanic
13:04 30.3569 -76.0502 141° Southeast 462 532 33,000  Level FlightAware Transoceanic
13:05 30.2572 -75.9563 141° Southeast 462 532 33,000  Level FlightAware Transoceanic
13:06 30.1575 -75.8625 141° Southeast 462 532 33,000  Level FlightAware Transoceanic
13:07 30.0577 -75.7690 141° Southeast 462 532 33,000  Level FlightAware Transoceanic
13:08 29.9578 -75.6757 141° Southeast 462 532 33,000  Level FlightAware Transoceanic
13:09 29.8578 -75.5825 141° Southeast 462 532 33,000  Level FlightAware Transoceanic
13:10 29.7578 -75.4895 141° Southeast 462 532 33,000  Level FlightAware Transoceanic
13:11 29.6577 -75.3967 141° Southeast 462 532 33,000  Level FlightAware Transoceanic
13:12 29.5576 -75.3041 141° Southeast 462 532 33,000  Level FlightAware Transoceanic
13:13 29.4574 -75.2117 141° Southeast 462 532 33,000  Level FlightAware Transoceanic
13:14 29.3571 -75.1195 141° Southeast 462 532 33,000  Level FlightAware Transoceanic
13:15 29.2568 -75.0274 141° Southeast 462 532 33,000  Level FlightAware Transoceanic
13:16 29.1564 -74.9356 141° Southeast 462 532 33,000  Level FlightAware Transoceanic
13:17 29.0559 -74.8439 141° Southeast 462 532 33,000  Level FlightAware Transoceanic
13:18 28.9554 -74.7523 141° Southeast 462 532 33,000  Level FlightAware Transoceanic
13:19 28.8548 -74.6610 142° Southeast 462 532 33,000  Level FlightAware Transoceanic
13:20 28.7541 -74.5698 142° Southeast 462 532 33,000  Level FlightAware Transoceanic
13:21 28.6534 -74.4789 142° Southeast 462 532 33,000  Level FlightAware Transoceanic
13:22 28.5527 -74.3881 142° Southeast 462 532 33,000  Level FlightAware Transoceanic
13:23 28.4518 -74.2974 142° Southeast 462 532 33,000  Level FlightAware Transoceanic
13:24 28.3510 -74.2070 142° Southeast 462 532 33,000  Level FlightAware Transoceanic
13:25 28.2500 -74.1167 149° Southeast 462 532 33,000  Level FlightAware Transoceanic
13:25 28.2500 -74.1167 149° Southeast 482 555 33,000  Level New York Oceanic (ODAPS)
13:26 28.1345 -74.0389 149° Southeast 462 532 33,000  Level FlightAware Transoceanic
13:27 28.0189 -73.9614 149° Southeast 462 532 33,000  Level FlightAware Transoceanic
13:28 27.9033 -73.8840 149° Southeast 462 532 33,000  Level FlightAware Transoceanic
13:29 27.7877 -73.8067 149° Southeast 462 532 33,000  Level FlightAware Transoceanic
13:30 27.6720 -73.7297 149° Southeast 462 532 33,000  Level FlightAware Transoceanic
13:31 27.5563 -73.6528 150° Southeast 462 532 33,000  Level FlightAware Transoceanic
13:32 27.4405 -73.5760 150° Southeast 482 555 33,000  Level FlightAware Transoceanic
13:33 27.3247 -73.4995 150° Southeast 482 555 33,000  Level FlightAware Transoceanic
13:34 27.2088 -73.4230 150° Southeast 482 555 33,000  Level FlightAware Transoceanic
13:35 27.0929 -73.3468 150° Southeast 482 555 33,000  Level FlightAware Transoceanic
13:36 26.9770 -73.2707 150° Southeast 482 555 33,000  Level FlightAware Transoceanic
13:37 26.8610 -73.1947 150° Southeast 482 555 33,000  Level FlightAware Transoceanic
13:38 26.7450 -73.1189 150° Southeast 482 555 33,000  Level FlightAware Transoceanic
13:39 26.6289 -73.0433 150° Southeast 482 555 33,000  Level FlightAware Transoceanic
13:40 26.5128 -72.9678 150° Southeast 482 555 33,000  Level FlightAware Transoceanic
13:41 26.3967 -72.8925 150° Southeast 482 555 33,000  Level FlightAware Transoceanic
13:42 26.2805 -72.8173 150° Southeast 482 555 33,000  Level FlightAware Transoceanic
13:43 26.1643 -72.7422 150° Southeast 482 555 33,000  Level FlightAware Transoceanic
13:44 26.0480 -72.6674 150° Southeast 482 555 33,000  Level FlightAware Transoceanic
13:45 25.9317 -72.5926 150° Southeast 482 555 33,000  Level FlightAware Transoceanic
13:46 25.8154 -72.5181 150° Southeast 482 555 33,000  Level FlightAware Transoceanic
13:46 25.7928 -72.5481 150° Southeast 457 526 33,000  Level Miami Center
13:47 25.6990 -72.4436 150° Southeast 482 555 33,000  Level FlightAware Transoceanic
13:47 25.6758 -72.4717 150° Southeast 470 541 33,000  Level Miami Center
13:48 25.5826 -72.3693 150° Southeast 482 555 33,000  Level FlightAware Transoceanic
13:48 25.5608 -72.3997 151° Southeast 480 552 33,000  Level Miami Center
13:49 25.4662 -72.2952 150° Southeast 482 555 33,000  Level FlightAware Transoceanic
13:49 25.4414 -72.3236 150° Southeast 485 558 33,000  Level Miami Center
13:50 25.3497 -72.2212 150° Southeast 482 555 33,000  Level FlightAware Transoceanic
13:50 25.3222 -72.2478 150° Southeast 493 567 33,000  Level Miami Center
13:51 25.2332 -72.1473 150° Southeast 482 555 33,000  Level FlightAware Transoceanic
13:51 25.2069 -72.1719 149° Southeast 493 567 33,000  Level Miami Center
13:52 25.0878 -72.0983 151° Southeast 488 562 33,000  Level Miami Center
13:53 24.9664 -72.0253 151° Southeast 488 562 33,000  Level Miami Center
13:54 24.8631 -71.9333 141° Southeast 493 567 33,100 960 Climbing Miami Center
13:55 24.7697 -71.8294 135° Southeast 483 556 35,000 1,440 Climbing Miami Center
13:56 24.6725 -71.7353 139° Southeast 472 543 36,000 720 Climbing Miami Center
13:57 24.5753 -71.6411 139° Southeast 458 527 36,500 360 Climbing Miami Center
13:58 24.4781 -71.5472 139° Southeast 463 533 36,800 240 Climbing Miami Center
13:59 24.3806 -71.4486 137° Southeast 473 544 37,000 60 Climbing Miami Center
14:00 24.2786 -71.3461 137° Southeast 479 551 37,000  Level Miami Center
14:01 24.1769 -71.2528 140° Southeast 484 557 37,000  Level Miami Center
14:02 24.0750 -71.1506 138° Southeast 484 557 37,000  Level Miami Center
14:03 23.9708 -71.0483 138° Southeast 484 557 37,000  Level Miami Center
14:04 23.8689 -70.9556 140° Southeast 489 563 37,000  Level Miami Center
14:05 23.7628 -70.8561 139° Southeast 494 568 37,000  Level Miami Center
14:06 23.6606 -70.7569 138° Southeast 499 574 37,000  Level Miami Center
14:07 23.5586 -70.6600 139° Southeast 499 574 37,000  Level Miami Center
14:08 23.4522 -70.5589 139° Southeast 499 574 37,000  Level Miami Center
14:09 23.3497 -70.4597 138° Southeast 499 574 37,000  Level Miami Center
14:10 23.2478 -70.3656 140° Southeast 499 574 37,000  Level Miami Center
14:11 23.1456 -70.2692 139° Southeast 494 568 37,000  Level Miami Center
14:12 23.0453 -70.1731 139° Southeast 489 563 37,000  Level Miami Center
14:13 22.9450 -70.0769 139° Southeast 489 563 37,000  Level Miami Center
14:14 22.8406 -69.9789 139° Southeast 484 557 37,000  Level Miami Center
14:15 22.7336 -69.8811 140° Southeast 489 563 37,000  Level Miami Center
14:16 22.6333 -69.7875 139° Southeast 489 563 37,000  Level Miami Center
14:17 22.5286 -69.6878 139° Southeast 495 570 37,000  Level Miami Center
14:18 22.4242 -69.5925 140° Southeast 495 570 37,000  Level Miami Center
14:19 22.3214 -69.4953 139° Southeast 495 570 37,000  Level Miami Center
14:20 22.2122 -69.3961 140° Southeast 495 570 37,000  Level Miami Center
14:21 22.1075 -69.3014 140° Southeast 495 570 37,000  Level Miami Center
14:22 22.0069 -69.2067 139° Southeast 500 575 37,000  Level Miami Center
14:23 21.8997 -69.1078 139° Southeast 500 575 37,000  Level Miami Center
14:24 21.7861 -69.0050 140° Southeast 500 575 37,000  Level Miami Center
14:25 21.6811 -68.9089 140° Southeast 494 568 37,000  Level Miami Center
14:26 21.5742 -68.8128 140° Southeast 499 574 37,000  Level Miami Center
14:27 21.4669 -68.7167 140° Southeast 499 574 37,000  Level Miami Center
14:28 21.3558 -68.6236 142° Southeast 504 580 37,000  Level Miami Center
14:29 21.2631 -68.5269 136° Southeast 496 571 37,000  Level Miami Center
14:30 21.1558 -68.4336 141° Southeast 491 565 37,000  Level Miami Center
14:31 21.0508 -68.3383 140° Southeast 496 571 37,000  Level Miami Center
14:32 20.9533 -68.2314 134° Southeast 496 571 37,000  Level Miami Center
14:33 20.8719 -68.1169 127° Southeast 496 571 37,000  Level Miami Center
14:34 20.7842 -68.0008 129° Southeast 496 571 37,000  Level Miami Center
14:35 20.7086 -67.8819 124° Southeast 496 571 37,000  Level Miami Center
14:36 20.6167 -67.7686 131° Southeast 496 571 37,000  Level Miami Center
14:37 20.5447 -67.6783 130° Southeast 496 571 37,000  Level Miami Center
14:37 20.5167 -67.6167 116° Southeast 490 564 37,000  Level San Juan Center
14:38 20.4333 -67.5000 127° Southeast 490 564 37,000  Level San Juan Center
14:39 20.3500 -67.3833 127° Southeast 490 564 37,000  Level San Juan Center
14:40 20.2667 -67.2667 127° Southeast 490 564 37,000  Level San Juan Center
14:41 20.1667 -67.1500 132° Southeast 500 575 37,000  Level San Juan Center
14:42 20.0833 -67.0333 127° Southeast 500 575 37,000  Level San Juan Center
14:43 20.0000 -66.9167 127° Southeast 500 575 37,000  Level San Juan Center
14:44 19.9167 -66.8000 127° Southeast 510 587 37,000  Level San Juan Center
14:45 19.8167 -66.6833 132° Southeast 510 587 37,000 -780 Level San Juan Center
14:46 19.7333 -66.5667 127° Southeast 500 575 35,500 -1,740 Descending San Juan Center
14:47 19.6500 -66.4500 127° Southeast 500 575 33,500 -1,200 Descending San Juan Center
14:48 19.5667 -66.3333 127° Southeast 510 587 33,100 -300 Descending San Juan Center
14:49 19.4667 -66.2167 132° Southeast 500 575 33,000 -60 Descending San Juan Center
14:50 19.3833 -66.1000 127° Southeast 500 575 33,000  Level San Juan Center
14:51 19.3000 -65.9833 127° Southeast 500 575 33,000  Level San Juan Center
14:52 19.2167 -65.8667 127° Southeast 500 575 33,000  Level San Juan Center
14:53 19.1167 -65.7500 132° Southeast 500 575 33,000  Level San Juan Center
14:54 19.0333 -65.6333 127° Southeast 500 575 33,000  Level San Juan Center
14:55 18.9333 -65.5000 128° Southeast 500 575 33,000  Level San Juan Center
14:56 18.8500 -65.4000 131° Southeast 480 552 33,000  Level San Juan Center
14:57 18.7667 -65.2833 127° Southeast 470 541 33,000  Level San Juan Center
14:58 18.7000 -65.1667 121° Southeast 470 541 33,000  Level San Juan Center
14:59 18.6333 -65.0500 121° Southeast 460 529 33,000 -300 Level San Juan Center
15:00 18.5667 -64.9333 121° Southeast 450 518 32,500 -780 Descending San Juan Center
15:01 18.5000 -64.8333 125° Southeast 450 518 31,500 -1,020 Descending San Juan Center
15:02 18.4333 -64.7167 121° Southeast 440 506 30,500 -1,020 Descending San Juan Center
15:03 18.3500 -64.6167 131° Southeast 440 506 29,500 -900 Descending San Juan Center
15:04 18.2833 -64.5333 130° Southeast 410 472 28,700 -900 Descending San Juan Center
15:05 18.2000 -64.4333 131° Southeast 410 472 27,700 -1,020 Descending San Juan Center
15:06 18.1167 -64.3500 136° Southeast 400 460 26,700 -1,020 Descending San Juan Center
15:07 18.0500 -64.2667 130° Southeast 410 472 25,700 -1,020 Descending San Juan Center
15:08 17.9667 -64.1833 136° Southeast 400 460 24,700 -1,020 Descending San Juan Center
15:09 17.8833 -64.1000 136° Southeast 390 449 23,700 -960 Descending San Juan Center
15:10 17.8167 -64.0167 130° Southeast 380 437 22,800 -960 Descending San Juan Center
15:11 17.7500 -63.9333 130° Southeast 380 437 21,800 -1,260 Descending San Juan Center
15:12 17.6667 -63.8667 143° Southeast 370 426 20,300 -1,500 Descending San Juan Center
15:13 17.6000 -63.7833 130° Southeast 350 403 18,900 -1,440 Descending San Juan Center
15:14 17.5333 -63.7000 130° Southeast 350 403 17,400 -1,500 Descending San Juan Center
15:15 17.4833 -63.6333 128° Southeast 340 391 15,900 -1,440 Descending San Juan Center
15:16 17.4667 -63.5333 100° East 350 403 14,600 -1,320 Descending San Juan Center
15:17 17.4500 -63.4333 100° East 310 357 13,300 -1,380 Descending San Juan Center
15:18 17.4167 -63.3500 113° Southeast 320 368 11,900 -1,380 Descending San Juan Center
15:19 17.4000 -63.2667 102° East 310 357 10,600 -1,440 Descending San Juan Center
15:20 17.3833 -63.1667 100° East 300 345 9,100 -840 Descending San Juan Center
15:21 17.3667 -63.0833 102° East 300 345 9,000 -60 Descending San Juan Center
15:22 17.3500 -63.0000 102° East 300 345 9,000  Level San Juan Center
15:24 17.3097 -62.8485 102° East  Level FlightAware Approximate
15:31 17.3112 -62.7187 North  Level Estimated